Weather in Ozolnieki

Latvia     56°41′26″N   23°47′15″E
temp.,
°C
wind,
m/s
gust,
m/s
humid.,
%
clouds,
%
prec.,
mm/h
press.,
hPa
HPBL,
m
20 april, tue
tue2000:00+9ne2255100 0.0 102132
03:00+7e2269100 0.0 102035
06:00+7e117479 0.0 101910
09:00+10ene116194 0.0 1018188
12:00+14ene134666 0.0 10161053
15:00+15n4333100 0.0 10151843
18:00+13n3447100 0.0 1013771
21:00+8n227096 0.0 101323
21 april, wed
wed2100:00+9sse2570100 0.0 1012209
03:00+8se247984 0.0 1011159
06:00+5s11935 0.0 100910
09:00+10s116759 0.0 1008365
12:00+14ssw234785 0.0 10071632
15:00+16w343596 0.1 10052402
18:00+16w55299 0.0 10042443
21:00+10wsw395619 0.0 1005321
22 april, thu
thu2200:00+7sw397011 0.0 1005322
03:00+5sw3118114 0.0 1005393
06:00+6ssw397399 0.0 1005620
09:00+6ssw487698 0.4 1005964
12:00+10ssw6104599 0.1 10052142
15:00+8sw7125590 0.6 10051886
18:00+8sw6105571 0.3 10061727
21:00+3sw4107943 0.3 1007830
23 april, fri
fri2300:00+2ssw498488 0.0 1006689
03:00+3ssw4880100 0.0 1006697
06:00+2sw4889100 0.5 1005646
09:00+2sw4786100 0.6 1005706
12:00+5wsw686690 0.3 10071236
15:00+6w71064100 0.6 10081420
18:00+5w5859100 0.6 10101441
21:00+2w4971100 0.6 1011773
24 april, sat
sat2400:00+1wsw4108999 0.0 1011536
03:00+2wsw3891100 0.1 1009645
06:00+2wsw3897100 0.3 1008661
09:00+2wnw3696100 0.7 1008622
12:00+5wnw456999 0.4 10091110
15:00+5wnw5767100 1.5 10101220
18:00+4wnw3795100 0.8 1011653
21:00+3wnw498199 1.3 1012847